Simultaneous Nadir Overpasses (SNOs) Predictions

Prediction of SNOs between GOES-16 and METOP-B Satellite Orbit:

Table of predicted SNOs for the next 14.0 days since TLE Epoch: 1/28/2023
Index Date Time (GOES-16) GOES-16 Lat,Lon METOP-B Lat,Lon Distance(km) Time Diff (sec)
1 01/28/2023 14:41:03 0.01, -75.19 0.48, -77.28 237.67 80
2 01/29/2023 14:17:44 0.00, -75.20 -0.67, -72.29 332.03 80
3 01/31/2023 02:39:23 -0.00, -75.19 -0.36, -76.88 191.97 80
4 02/01/2023 02:16:03 0.00, -75.19 0.74, -71.88 377.93 80
5 02/02/2023 14:37:33 0.00, -75.22 0.27, -76.43 138.41 80
6 02/03/2023 14:14:12 0.00, -75.23 -0.84, -71.43 431.99 80
7 02/05/2023 02:35:52 -0.01, -75.23 -0.18, -76.03 90.64 80
8 02/06/2023 02:12:31 -0.02, -75.24 0.93, -71.03 480.30 80
9 02/07/2023 14:34:01 0.03, -75.27 0.07, -75.58 34.71 80
10 02/10/2023 02:29:39 -0.03, -75.31 -0.03, -75.17 15.66 80
